Other Public Products
Issued by NWS Grand Forks, ND

Home | Current Version | Previous Version | Graphics & Text | Print | Product List | Glossary On
Versions: 1 2 3 4 5 6 7 8 9 10 11 12 13 14 15 16 17 18 19 20 21 22 23 24 25 26 27 28 29 30 31 32 33 34 35 36 37 38 39 40 41 42 43 44 45 46 47 48 49 50
240
FPUS83 KFGF 292131
OPUFGF
PRAIRIE TO PINES WEATHER ROUNDUP
NATIONAL WEATHER SERVICE EASTERN NORTH DAKOTA/GRAND FORKS ND
400 PM CDT SAT APR 29 2017

 **SATELLITE DATA USED TO AUGMENT SKY COVER AT AUTOMATED STATIONS**
 *****  WEATHER ACROSS EASTERN NORTH DAKOTA  *****

CITY           SKY/WX    TMP DP  RH WIND       PRES   REMARKS
GRAND FORKS    PTSUNNY   60  24  25 VRB6      30.31R
GRAND FORKS AF FAIR      58  20  22 CALM      30.31R
GRAND CITY NWS NOT AVBL
BUXTON           N/A    N/A N/A N/A SE3         N/A
DEVILS LAKE    FAIR      59  16  18 SW7       30.27S
FARGO          FAIR      60  20  21 VRB5      30.31S
WAHPETON ARPT  FAIR      55  21  26 N3        30.31F
$$

 *****  WEATHER ACROSS CENTRAL AND WESTERN NORTH DAKOTA  *****

CITY           SKY/WX    TMP DP  RH WIND       PRES   REMARKS
JAMESTOWN      FAIR      58  16  19 CALM      30.28R
BISMARCK       FAIR      63  17  17 VRB3      30.26S
MINOT          PTSUNNY   63  25  23 SW9       30.19F
MINOT AFB      FAIR      62  26  25 SW15      30.18F
GARRISON         N/A     61  22  22 W6G18     30.21F
WILLISTON      FAIR      61  32  33 S9        30.20F
DICKINSON      FAIR      57  19  22 MISG      30.20F
HETTINGER      FAIR      57  19  22 NW6       30.24F
$$

 *****  OTHER OBSERVATIONS NORTHEAST NORTH DAKOTA  *****

CITY           SKY/WX    TMP DP  RH WIND       PRES   REMARKS
WALHALLA       NOT AVBL
LANGDON        FAIR      61  21  21 S14       30.26S
CAVALIER       FAIR      59  28  31 S9        30.27S
GRAFTON        FAIR      59  23  25 SE6G13    30.31S
CANDO          NOT AVBL
FORT TOTTEN      N/A     63  16  16 NW3       29.95S
ROLLA          FAIR      61  21  21 SW12G20   30.22S
RUGBY          NOT AVBL
 ***** THE ABOVE OBSERVATIONS ARE NON NWS ARE NOT QUALITY
        CONTROLLED AND MAY MIS-REPORT RAIN FOR SNOW...
$$

 *****  OTHER OBSERVATIONS SOUTHEAST NORTH DAKOTA *****

CITY           SKY/WX    TMP DP  RH WIND       PRES   REMARKS
COOPERSTOWN    FAIR      59  23  25 VRB3      30.29F
VALLEY CITY    FAIR      57  18  21 CALM      30.30F
OAKES          NOT AVBL
GWINNER        CLEAR     59  23  25 MISG      30.29F
SHEYENNE NWR     N/A     59  18  20 NE5       29.95S
BUFFALO          N/A     61  16  17 CALM        N/A
WYNDMERE         N/A     57  23  26 NE6         N/A
 ***** THE ABOVE OBSERVATIONS ARE NON NWS ARE NOT QUALITY
       CONTROLLED AND MAY MIS-REPORT RAIN FOR SNOW...
$$

  *****  WEATHER ACROSS NORTHERN MINNESOTA  *****

CITY           SKY/WX    TMP DP  RH WIND       PRES   REMARKS
FLAG ISLAND    FAIR      50  16  25 SE7       30.31F
WARROAD        FAIR      48  25  40 E9        30.33S
ROSEAU         FAIR      57  27  30 W5        30.31S
HALLOCK        FAIR      61  18  18 S8        30.30R
THF RVR FALLS  FAIR      56  16  20 SE6       30.33R
HALSTAD          N/A     58  21  24 CALM        N/A
FOSSTON        FAIR      61  27  27 SE3       30.32F
BAUDETTE       FAIR      56  16  20 VRB3      30.32R
WASKISH        FAIR      54  23  30 W8        30.33F
CROOKSTON      FAIR      57  23  26 SE6       30.33S
$$
  *****  WEATHER ACROSS CENTRAL AND WEST MINNESOTA  *****

CITY           SKY/WX    TMP DP  RH WIND       PRES   REMARKS
BEMIDJI        FAIR      55  21  26 CALM      30.32F
PARK RAPIDS    FAIR      56  19  23 VRB3      30.31S
WADENA         FAIR      55  25  30 NE6       30.29F
DETROIT LAKES  FAIR      55  23  28 CALM      30.32S
MOORHEAD       FAIR      57  19  23 N7        30.31F
FERGUS FALLS   FAIR      55  23  28 NE8       30.29F
ELBOW LAKE     FAIR      55  24  29 E8        30.30F
MORRIS MN      FAIR      57  23  26 E9G17     30.27F
STAPLES        FAIR      55  18  22 NE5       30.30F
WHEATON        FAIR      55  19  24 NE12      30.30F
$$
  *****  WEATHER ELSEWHERE ACROSS MINNESOTA  *****

CITY           SKY/WX    TMP DP  RH WIND       PRES   REMARKS
DULUTH         FAIR      46  15  28 E16       30.36R
INTRNTL FALLS  FAIR      53  15  22 VRB5      30.34R
ELY            FAIR      50  10  20 W6        30.34S
CLOQUET        FAIR      48  10  21 E13       30.34F
BRAINERD       FAIR      55  21  26 E8        30.32F
HIBBING        FAIR      53  15  22 VRB3      30.33R
ALEXANDRIA     FAIR      54  23  30 E9        30.31F
SAINT CLOUD    FAIR      55  22  27 NE9       30.31S
MINNEAPOLIS    CLOUDY    54  23  30 NE13G25   30.27F
$$

  *****  WEATHER ACROSS SOUTH DAKOTA  *****

CITY           SKY/WX    TMP DP  RH WIND       PRES   REMARKS
SIOUX FALLS    CLOUDY    54  23  30 E23G31    30.15F
BROOKINGS      FAIR      53  22  29 NE18G26   30.22F
WATERTOWN      FAIR      53  23  31 NE14      30.27F
HURON          FAIR      57  22  25 NE14      30.23F
SISSETON         N/A     58  22  24 E9        30.29F
ABERDEEN       FAIR      58  16  19 VRB3G20   30.29F
MITCHELL       FAIR      58  20  22 E15G29    30.20F
PIERRE         FAIR      59  16  18 E15G21    30.20F
MOBRIDGE       FAIR      63  14  15 CALM      30.24S
RAPID CITY     FAIR      55  19  24 VRB3      30.23F
$$

  *****  SOME WEATHER IN NEARBY STATES *****

CITY           SKY/WX    TMP DP  RH WIND       PRES   REMARKS
GLASGOW MT     FAIR      61  31  32 SW9G20    30.16F
GREAT FALLS MT FAIR      54  27  35 SW10      30.12F
CHEYENNE WY    CLOUDY    32  16  51 N16       30.17R WCI  21
SCOTTSBLUFF NE CLOUDY    44  25  47 N16       30.20F
OMAHA NE       CLOUDY    46  36  68 NE25G35   29.99F
DES MOINES IA  CLOUDY    44  39  82 NE20G26   30.05F
DAVENPORT IA   RAIN      40  38  93 NE28G33   30.08R FOG
CHICAGO IL     LGT RAIN  40  37  89 NE20G26   30.12F FOG
EAU CLAIRE WI  FAIR      54  26  34 NE10G16   30.25F
LA CROSSE WI   FAIR      50  27  40 NE12      30.23F
$$

  *****  SOME NATIONAL WEATHER *****

CITY           SKY/WX    TMP DP  RH WIND       PRES   REMARKS
LA GUARDIA NY  PTSUNNY   85  56  37 W25G40    29.97R
RALEIGH NC     PTSUNNY   88  70  55 SW12      30.13F HX  93
ATLANTA GA     PTSUNNY   85  66  53 SE13G21   30.08F
NEW ORLEANS LA CLOUDY    83  74  74 S16       29.89S
OKLAHOMA CITY  LGT RAIN  55  46  71 N16       29.66S
ALBUQUERQUE NM PTSUNNY   46  32  58 N10       29.93S
SALT LAKE CITY FAIR      54  23  30 NE10      30.19S
LOS ANGELES CA FAIR      78  24  13 SW15      30.00S
BOISE ID       FAIR      58  28  32 NW7       30.22F
SEATTLE WA     CLOUDY    54  43  66 S6        30.18F
$$

*** WEATHER ACROSS MANITOBA...SASKATCHEWAN AND ONTARIO ***
                ***ONTARIO***

CITY           SKY/WX    TMP DP  RH WIND       PRES   REMARKS
GERALDTON      SUNNY     46  19  34 N8G17     30.32S
THUNDER BAY    SUNNY     50  19  29 SE7       30.35R
SIOUX LOOKOUT  MOSUNNY   48  10  21 VRB2      30.32F
TORONTO        PTSUNNY   54  34  47 N14G21    30.16S
BIG TROUT LK   SUNNY     36  18  48 S6        30.35S
PICKLE LAKE    SUNNY     46  12  25 VRB6      30.31F
DRYDEN         SUNNY     48   5  17 VRB2      30.32R
KENORA         PTSUNNY   50  10  20 SW7       30.32R
$$
                *** MANITOBA***

CITY           SKY/WX    TMP DP  RH WIND       PRES   REMARKS
BRANDON        PTSUNNY   63  32  31 SW17G28   30.17R
DAUPHIN        MOSUNNY   63  28  27 W15G22    30.13F
ISLAND LAKE    MOSUNNY   48  19  32 E5        30.30F
PILOT MOUND      N/A     63  16  16 SW10G20     N/A
THE PAS        CLOUDY    46  25  42 SE12G24   30.16F
THOMPSON       MOSUNNY   45  21  39 S6        30.26F
WINNIPEG       MOSUNNY   63  16  16 SE12G18   30.24F
LYNN LAKE      SUNNY     46  18  31 SE8       30.17F
CHURCHILL      PTSUNNY   18   7  62 E5        30.36F WCI  11
GILLAM         PTSUNNY   36  10  35 SE7       30.33F
$$
                ***SASKATCHEWAN***

CITY           SKY/WX    TMP DP  RH WIND       PRES   REMARKS
ESTEVAN        MOSUNNY   61  27  27 W14G23    30.18S
KINDERSLEY     MOSUNNY   54  25  32 VRB3      30.08F
LLOYDMINSTER   PTSUNNY   54  30  40 S8        30.04F
PRINCE ALBERT  MOSUNNY   54  30  40 N9        30.11S
REGINA         MOSUNNY   55  27  33 SW8G20    30.17F
YORKTON        MOSUNNY   55  28  35 W15G26    30.14F



USA.gov is the U.S. government's official web portal to all federal, state and local government web resources and services.